Weather in Kittila

Finland     67°39′22″N   24°54′32″E
temp.,
°C
wind,
m/s
gust,
m/s
humid.,
%
clouds,
%
prec.,
mm/h
press.,
hPa
HPBL,
m
25 february, thu
thu2523:00−10s399599 0.1 1001323
02:00−9s3995100 0.1 1001324
05:00−8s3995100 0.1 998298
08:00−6s3897100 0.4 997229
11:00−3s379696 0.0 995252
14:00+1ssw399598 0.0 994362
17:00−1s249795 0.0 99272
20:00−3s239885 0.0 99273
26 february, fri
fri2623:00−3s239699 0.0 99137
02:00−4s239696 0.0 99248
05:00−6w019711 0.0 99221
08:00−6n129622 0.0 99421
11:00−3w119181 0.0 99541
14:00+1nnw3129764 0.3 999923
17:00+1n8169297 0.5 10031135
20:00−2n5158463 0.5 1009772
27 february, sat
sat2723:00−6nnw310910 0.0 1013258
02:00−7nw23900 0.0 101641
05:00−8wnw22880 0.0 101722
08:00−7wnw128723 0.0 101921
11:00−4wsw11802 0.0 101968
14:00−3ssw248113 0.0 1019242
17:00−6s239167 0.0 101761
20:00−6s389184 0.0 1014254
28 february, sun
sun2823:00−5ssw3995100 0.3 1011316
02:00−5ssw269899 0.3 1010281
05:00−4sw2494100 0.0 1009102
08:00−2wsw238667 0.0 101034
11:00+1sw4128090 0.0 1010327
14:00+2sw4128495 0.0 1010361
17:00+3wsw51587100 0.0 1008579
20:00+2wsw51690100 0.1 1005585
1 march, mon
mon123:00+3sw61782100 0.0 1002607
02:00+2wsw5128789 0.1 1003476
05:00−1w4148368 0.0 1003625
08:00−2wsw3128533 0.0 1002354
11:000w513690 0.0 10021073
14:00+1w411760 0.0 10021113
17:00−1wsw4167663 0.0 10011118
20:00−1w4147559 0.0 1002574